Weather History for Lake Charles Regional, LA

Change the Weather History Date:

Saturday, February 22, 2014

  Actual Average Record
Temperature  
Mean Temperature 56 °F 56 °F  
Max Temperature 69 °F 66 °F 85 °F (1913)
Min Temperature 43 °F 47 °F 23 °F (1978)
Degree Days  
Heating Degree Days 9 9  
Month to date heating degree days 301 241  
Since 1 July heating degree days 1591 1232  
Cooling Degree Days 0 0  
Month to date cooling degree days 15 0  
Year to date cooling degree days 15 10  
Growing Degree Days 6 (Base 50)    
Moisture  
Dew Point 45 °F    
Average Humidity 62    
Maximum Humidity 92    
Minimum Humidity 32    
Precipitation  
Precipitation T in 0.12 in 1.89 in (1928)
Month to date precipitation 2.93 2.78  
Year to date precipitation 5.22 8.01  
Snow  
Snow 0.00 in 0.00 in T in (1963)
Month to date snowfall T 0.1  
Since 1 July snowfall 0.1 0.1  
Snow Depth 0.00 in    
Sea Level Pressure  
Sea Level Pressure 30.06 in    
Wind  
Wind Speed 6 mph (SE)    
Max Wind Speed 20 mph    
Max Gust Speed 23 mph    
Visibility 10 miles    
Events Rain    
T = Trace of Precipitation, MM = Missing Value Source: NWS Daily Summary

Daily Weather History Graph

Daily Weather History Graph

Search for Another Location

Airport:

Trip Planner

Search our weather history database for the weather conditions in past years. The results will help you decide how hot, cold, wet, or windy it might be!

Date:

Astronomy

Feb. 22, 2014 Rise Set
Actual Time 6:46 AM CST 6:06 PM CST
Civil Twilight 6:21 AM CST 6:31 PM CST
Nautical Twilight 5:54 AM CST 6:59 PM CST
Astronomical Twilight 5:26 AM CST 7:26 PM CST
Moon 12:32 AM CST (2/22) 11:29 AM CST (2/22)
Length of Visible Light 12h 09m
Length of Day
11h 20m
Waning Gibbous, 50% of the Moon is Illuminated
Feb 22
Waning Gibbous
Mar 1
New
Mar 8
First Quarter
Mar 16
Full
Mar 23
Last Quarter

Hourly Weather History & Observations

Time (CST) Temp. Windchill Dew Point Humidity Pressure Visibility Wind Dir Wind Speed Gust Speed Precip Events Conditions
12:53 AM 45.0 °F - 43.0 °F 93% 30.12 in 10.0 mi Calm Calm - N/A   Clear
1:53 AM 45.0 °F - 42.1 °F 90% 30.12 in 10.0 mi Calm Calm - N/A   Clear
2:53 AM 44.1 °F - 42.1 °F 93% 30.10 in 10.0 mi Calm Calm - N/A   Clear
3:53 AM 45.0 °F - 43.0 °F 93% 30.09 in 10.0 mi Calm Calm - N/A   Clear
4:53 AM 46.0 °F - 42.1 °F 86% 30.09 in 10.0 mi Calm Calm - N/A   Clear
5:53 AM 44.1 °F - 41.0 °F 89% 30.11 in 10.0 mi Calm Calm - N/A   Clear
6:53 AM 44.1 °F 42.5 °F 41.0 °F 89% 30.12 in 10.0 mi ENE 3.5 mph - N/A   Clear
7:53 AM 48.9 °F - 44.1 °F 83% 30.14 in 10.0 mi NE 3.5 mph - N/A   Clear
8:53 AM 54.0 °F - 43.0 °F 66% 30.14 in 10.0 mi East 6.9 mph - N/A   Clear
9:53 AM 59.0 °F - 43.0 °F 55% 30.14 in 10.0 mi East 9.2 mph - N/A   Clear
10:53 AM 64.0 °F - 35.1 °F 34% 30.13 in 10.0 mi ESE 15.0 mph - N/A   Clear
11:53 AM 66.9 °F - 35.1 °F 31% 30.11 in 10.0 mi ESE 16.1 mph - N/A   Clear
12:53 PM 66.9 °F - 39.0 °F 36% 30.08 in 10.0 mi SE 16.1 mph - N/A   Clear
1:53 PM 68.0 °F - 37.9 °F 33% 30.05 in 10.0 mi SSE 13.8 mph - N/A   Clear
2:53 PM 66.9 °F - 37.0 °F 33% 30.04 in 10.0 mi SSE 13.8 mph - N/A   Clear
3:53 PM 66.0 °F - 39.9 °F 38% 30.02 in 10.0 mi South 9.2 mph - N/A   Clear
4:53 PM 64.0 °F - 44.1 °F 48% 30.00 in 10.0 mi SSE 10.4 mph - N/A   Clear
5:53 PM 62.1 °F - 51.1 °F 67% 29.98 in 10.0 mi SE 6.9 mph - N/A   Clear
6:53 PM 61.0 °F - 52.0 °F 72% 29.98 in 10.0 mi ESE 3.5 mph - N/A   Partly Cloudy
7:53 PM 59.0 °F - 53.1 °F 81% 29.99 in 10.0 mi ESE 3.5 mph - N/A   Clear
8:53 PM 60.1 °F - 54.0 °F 80% 30.00 in 10.0 mi Calm Calm - N/A   Overcast
9:53 PM 61.0 °F - 54.0 °F 78% 30.00 in 10.0 mi Calm Calm - N/A   Overcast
10:00 PM 61.0 °F - 54.0 °F 78% 29.98 in 10.0 mi SE 3.5 mph - N/A   Overcast
10:33 PM 61.0 °F - 55.9 °F 83% 29.98 in 10.0 mi SSE 4.6 mph - N/A   Overcast
10:53 PM 60.1 °F - 57.0 °F 90% 30.01 in 5.0 mi Calm Calm - 0.00 in Rain Light Rain
11:53 PM 60.1 °F - 59.0 °F 96% 30.00 in 10.0 mi Calm Calm - 0.00 in   Overcast